{"data":{"norad_id":44622,"epoch":"2026-09-20T05:10:30.131328Z","epoch_age_seconds":42762,"freshness":"FRESH","line1":"1 44622U 19066A   26263.21562652  .00000689  00000+0  91225-4 0  9993","line2":"2 44622  98.0603 217.5367 0005525 171.5352 188.5955 14.83173592376468","mean_motion":14.83173592,"eccentricity":0.0005525,"inclination_deg":98.0603,"raan_deg":217.5367,"arg_perigee_deg":171.5352,"mean_anomaly_deg":188.5955,"bstar":9.1225e-5,"rev_number":37646,"period_min":97.089107287719,"perigee_km":615.45841613473,"apogee_km":623.19061110728,"semimajor_km":6997.461513621,"source":"CELESTRAK","updated_at":"2026-09-20T09:00:33.975122Z"}}